Regional Weather Roundup
Issued by NWS

Home | Current Version | Previous Version | Graphics & Text | Print | Product List | Glossary On
Versions: 1 2 3 4 5 6 7 8 9 10 11 12 13 14 15 16 17 18 19 20 21 22 23 24 25 26 27 28 29 30 31 32 33 34 35 36 37 38 39 40 41 42 43 44 45 46 47 48 49 50
000
ASUS44 KMEG 040600
RWRTN
TENNESSEE HOURLY STATE WEATHER ROUNDUP
NATIONAL WEATHER SERVICE MEMPHIS TN
1200 AM CST WED MAR 04 2015

TNZ002-004-019-021-049-052-054-088>092-040700-
WEST TENNESSEE

CITY           SKY/WX    TMP DP  RH WIND       PRES   REMARKS
MEMPHIS INTL   MOCLDY    63  61  93 SW9       29.87F
NWS MEMPHIS      N/A     62 N/A N/A MISG        N/A
JACKSON        CLOUDY    63  60  90 SW8       29.86F
DYERSBURG      CLOUDY    54  41  62 W3        29.90S
UNION CITY     CLOUDY    46  46 100 CALM      29.87F
PARIS          CLOUDY    52  50  93 NW7       29.87F
LEXINGTON      CLOUDY    64  63  94 SW13      29.87F
SAVANNAH       CLOUDY    64  64 100 S9        29.90F
$$

TNZ008-025-027-028-033-062-065-066-040700-
NORTH MIDDLE TENNESSEE

CITY           SKY/WX    TMP DP  RH WIND       PRES   REMARKS
NASHVILLE      CLOUDY    64  62  93 SW8       29.88R
CLARKSVILLE    CLOUDY    55  53  93 N21       29.86S
COOKEVILLE     MOCLDY    61  61 100 S9        29.89F
CROSSVILLE     CLOUDY    58  56  93 S12G22    29.93F
$$

TNZ061-075-076-078-094-096-097-040700-
SOUTH MIDDLE TENNESSEE

CITY           SKY/WX    TMP DP  RH WIND       PRES   REMARKS
FAYETTEVILLE   CLOUDY    61  61 100 S12         N/A
TULLAHOMA      CLOUDY    63  61  94 S14       29.94F
WINCHESTER     CLOUDY    63  61  94 SW12      29.96F
COLUMBIA       CLOUDY   N/A N/A N/A SW12      29.88F
SHELBYVILLE    CLOUDY    64  64 100 S15       29.92F
$$

TNZ017-018-042-046-047-040700-
NORTHEAST TENNESSEE

CITY           SKY/WX    TMP DP  RH WIND       PRES   REMARKS
TRI CITIES     FOG       46  46 100 SE3       29.95F VSB 1
ELIZABETHTON   CLOUDY    48  48 100 CALM      29.95F
$$

TNZ012-013-036-069-073-074-040700-
CENTRAL EAST TENNESSEE

CITY           SKY/WX    TMP DP  RH WIND       PRES   REMARKS
KNOXVILLE      MOCLDY    51  50  96 W6        29.94F FOG
OAK RIDGE      RAIN      53  52  96 VRB6      29.97F FOG
GATLINBURG     CLOUDY    46  46 100 CALM      29.94F VSB 3/4
$$

TNZ083-085-099-040700-
SOUTHEAST TENNESSEE

CITY           SKY/WX    TMP DP  RH WIND       PRES   REMARKS
CHATTANOOGA    CLOUDY    55  54  96 S6        29.99F FOG
$$

SKY/WX REPORTED AS FAIR MEANS FEW OR NO CLOUDS BELOW
12 THOUSAND FEET.



USA.gov is the U.S. government's official web portal to all federal, state and local government web resources and services.